TimeEST,TemperatureF,Dew PointF,Humidity,Sea Level PressureIn,VisibilityMPH,Wind Direction,Wind SpeedMPH,Gust SpeedMPH,PrecipitationIn,Events,Conditions,WindDirDegrees,DateUTC
12:36 AM,15.8,5.0,62,30.42,10.0,Calm,Calm,-,N/A,,Clear,0,2009-01-27 05:36:00
12:55 AM,14.0,5.0,67,30.43,10.0,Calm,Calm,-,N/A,,Clear,0,2009-01-27 05:55:00
1:16 AM,14.0,5.0,67,30.43,10.0,Calm,Calm,-,N/A,,Clear,0,2009-01-27 06:16:00
1:36 AM,14.0,5.0,67,30.43,10.0,Calm,Calm,-,N/A,,Clear,0,2009-01-27 06:36:00
2:17 AM,12.2,5.0,73,30.43,10.0,Calm,Calm,-,N/A,,Clear,0,2009-01-27 07:17:00
2:37 AM,12.2,5.0,73,30.43,10.0,Calm,Calm,-,N/A,,Clear,0,2009-01-27 07:37:00
3:17 AM,10.4,5.0,79,30.44,10.0,Calm,Calm,-,N/A,,Clear,0,2009-01-27 08:17:00
4:37 AM,8.6,3.2,79,30.44,10.0,Calm,Calm,-,N/A,,Scattered Clouds,0,2009-01-27 09:37:00
4:55 AM,8.6,3.2,79,30.43,10.0,Calm,Calm,-,N/A,,Mostly Cloudy,0,2009-01-27 09:55:00
5:16 AM,6.8,3.2,85,30.42,10.0,Calm,Calm,-,N/A,,Overcast,0,2009-01-27 10:16:00
5:36 AM,8.6,3.2,79,30.44,10.0,Calm,Calm,-,N/A,,Scattered Clouds,0,2009-01-27 10:36:00
5:55 AM,8.6,3.2,79,30.44,10.0,Calm,Calm,-,N/A,,Clear,0,2009-01-27 10:55:00
6:17 AM,8.6,3.2,79,30.43,10.0,Calm,Calm,-,N/A,,Clear,0,2009-01-27 11:17:00
6:36 AM,8.6,3.2,79,30.44,10.0,Calm,Calm,-,N/A,,Clear,0,2009-01-27 11:36:00
6:55 AM,8.6,5.0,85,30.42,10.0,Calm,Calm,-,N/A,,Clear,0,2009-01-27 11:55:00
7:37 AM,6.8,3.2,85,30.40,10.0,Calm,Calm,-,N/A,,Clear,0,2009-01-27 12:37:00
7:55 AM,8.6,5.0,85,30.41,10.0,Calm,Calm,-,N/A,,Clear,0,2009-01-27 12:55:00
8:17 AM,5.0,1.4,85,30.42,10.0,Calm,Calm,-,N/A,,Clear,0,2009-01-27 13:17:00
8:37 AM,5.0,1.4,85,30.43,10.0,Calm,Calm,-,N/A,,Clear,0,2009-01-27 13:37:00
9:16 AM,6.8,5.0,92,30.44,7.0,Calm,Calm,-,N/A,,Clear,0,2009-01-27 14:16:00
9:37 AM,10.4,5.0,79,30.43,7.0,Calm,Calm,-,N/A,,Clear,0,2009-01-27 14:37:00
9:55 AM,10.4,6.8,85,30.43,10.0,Calm,Calm,-,N/A,,Clear,0,2009-01-27 14:55:00
10:17 AM,12.2,6.8,79,30.41,10.0,Calm,Calm,-,N/A,,Clear,0,2009-01-27 15:17:00
10:36 AM,15.8,6.8,68,30.41,10.0,Calm,Calm,-,N/A,,Clear,0,2009-01-27 15:36:00
10:55 AM,17.6,8.6,68,30.41,10.0,Calm,Calm,-,N/A,,Scattered Clouds,0,2009-01-27 15:55:00
11:37 AM,19.4,10.4,68,30.41,10.0,ESE,3.5,-,N/A,,Clear,120,2009-01-27 16:37:00
11:55 AM,19.4,10.4,68,30.39,10.0,ESE,4.6,-,N/A,,Scattered Clouds,120,2009-01-27 16:55:00
12:37 PM,19.4,10.4,68,30.37,10.0,SE,4.6,-,N/A,,Mostly Cloudy,130,2009-01-27 17:37:00
12:55 PM,21.2,10.4,63,30.35,10.0,ESE,4.6,-,N/A,,Mostly Cloudy,110,2009-01-27 17:55:00
1:17 PM,21.2,10.4,63,30.35,10.0,East,3.5,-,N/A,,Overcast,90,2009-01-27 18:17:00
1:36 PM,21.2,10.4,63,30.32,10.0,ENE,3.5,-,N/A,,Mostly Cloudy,70,2009-01-27 18:36:00
2:16 PM,21.2,8.6,58,30.31,10.0,ESE,4.6,-,N/A,,Scattered Clouds,110,2009-01-27 19:16:00
2:37 PM,21.2,10.4,63,30.31,10.0,ESE,5.8,-,N/A,,Scattered Clouds,110,2009-01-27 19:37:00
3:16 PM,21.2,10.4,63,30.29,10.0,ESE,4.6,-,N/A,,Overcast,110,2009-01-27 20:16:00
3:37 PM,21.2,10.4,63,30.29,10.0,NE,3.5,-,N/A,,Overcast,50,2009-01-27 20:37:00
3:55 PM,21.2,10.4,63,30.29,10.0,NE,3.5,-,N/A,,Overcast,40,2009-01-27 20:55:00
4:17 PM,21.2,10.4,63,30.27,10.0,ENE,5.8,-,N/A,,Overcast,70,2009-01-27 21:17:00
4:36 PM,21.2,10.4,63,30.26,10.0,ENE,6.9,-,N/A,,Overcast,70,2009-01-27 21:36:00
4:55 PM,21.2,10.4,63,30.25,10.0,ENE,5.8,-,N/A,,Overcast,70,2009-01-27 21:55:00
5:17 PM,21.2,10.4,63,30.25,10.0,ENE,6.9,-,N/A,,Overcast,70,2009-01-27 22:17:00
5:36 PM,21.2,10.4,63,30.24,10.0,East,5.8,-,N/A,,Overcast,90,2009-01-27 22:36:00
5:55 PM,21.2,10.4,63,30.23,10.0,East,5.8,-,N/A,,Overcast,90,2009-01-27 22:55:00
6:36 PM,21.2,12.2,68,30.22,10.0,East,4.6,-,N/A,,Overcast,90,2009-01-27 23:36:00
6:55 PM,21.2,12.2,68,30.21,10.0,East,3.5,-,N/A,,Overcast,90,2009-01-27 23:55:00
7:17 PM,21.2,12.2,68,30.20,10.0,Calm,Calm,-,N/A,,Overcast,0,2009-01-28 00:17:00
7:37 PM,21.2,12.2,68,30.19,10.0,East,3.5,-,N/A,,Overcast,80,2009-01-28 00:37:00
7:55 PM,21.2,12.2,68,30.18,10.0,ENE,4.6,-,N/A,,Overcast,60,2009-01-28 00:55:00
8:17 PM,21.2,12.2,68,30.16,10.0,East,5.8,-,N/A,,Overcast,90,2009-01-28 01:17:00
8:37 PM,21.2,12.2,68,30.15,10.0,East,5.8,-,N/A,,Overcast,90,2009-01-28 01:37:00
8:55 PM,21.2,12.2,68,30.15,10.0,East,4.6,-,N/A,,Overcast,90,2009-01-28 01:55:00
9:17 PM,21.2,12.2,68,30.13,10.0,East,4.6,-,N/A,,Overcast,90,2009-01-28 02:17:00
9:37 PM,19.4,12.2,74,30.12,10.0,East,6.9,-,N/A,,Overcast,90,2009-01-28 02:37:00
9:55 PM,19.4,12.2,74,30.11,10.0,East,4.6,-,N/A,,Overcast,80,2009-01-28 02:55:00
10:37 PM,19.4,12.2,74,30.10,10.0,ENE,5.8,-,N/A,,Overcast,70,2009-01-28 03:37:00
11:17 PM,19.4,14.0,80,30.08,7.0,ENE,4.6,-,N/A,Snow,Light Snow,70,2009-01-28 04:17:00
11:37 PM,19.4,14.0,80,30.08,3.0,ENE,5.8,-,N/A,Snow,Light Snow,70,2009-01-28 04:37:00